Weather History for Mackinac Island, MI

Change the Weather History Date:

Saturday, March 9, 2013

  Actual Average Record
Temperature  
Mean Temperature 32 °F -  
Max Temperature 38 °F 27 °F 48 °F (2002)
Min Temperature 25 °F 14 °F -5 °F (2003)
Degree Days  
Heating Degree Days 34    
Moisture  
Dew Point 24 °F    
Average Humidity 75    
Maximum Humidity 92    
Minimum Humidity 47    
Precipitation  
Precipitation 0.11 in - - ()
Sea Level Pressure  
Sea Level Pressure 30.18 in    
Wind  
Wind Speed 8 mph (SE)    
Max Wind Speed 13 mph    
Max Gust Speed 24 mph    
Visibility 9 miles    
Events Snow    
Averages and records for this station are not official NWS values.
T = Trace of Precipitation, MM = Missing Value Source: NWS Daily Summary

Daily Weather History Graph

Daily Weather History Graph

Search for Another Location

Airport:

Trip Planner

Search our weather history database for the weather conditions in past years. The results will help you decide how hot, cold, wet, or windy it might be!

Date:

Astronomy

Mar. 09, 2013 Rise Set
Actual Time 7:02 AM EST 6:36 PM EST
Civil Twilight 6:32 AM EST 7:06 PM EST
Nautical Twilight 5:57 AM EST 7:40 PM EST
Astronomical Twilight 5:22 AM EST 8:15 PM EST
Moon 5:31 AM EST (3/9) 4:33 PM EST (3/9)
Length of Visible Light 12h 33m
Length of Day
11h 34m
Waning Crescent, 5% of the Moon is Illuminated
Mar 9
Waning Crescent
Mar 11
New
Mar 19
First Quarter
Mar 27
Full
Apr 3
Last Quarter

Hourly Weather History & Observations

Time (EST) Temp. Windchill Dew Point Humidity Pressure Visibility Wind Dir Wind Speed Gust Speed Precip Events Conditions
12:13 AM 25.3 °F 19.7 °F 20.5 °F 82% 30.34 in 10.0 mi SSW 4.6 mph - N/A   Clear
12:33 AM 26.6 °F 20.0 °F 21.9 °F 82% 30.33 in 10.0 mi South 5.8 mph - N/A   Clear
12:53 AM 27.0 °F 19.5 °F 21.7 °F 81% 30.32 in 10.0 mi South 6.9 mph - N/A   Clear
1:13 AM 26.4 °F 19.8 °F 21.2 °F 81% 30.32 in 10.0 mi SSE 5.8 mph - N/A   Clear
1:33 AM 26.6 °F 19.1 °F 21.2 °F 80% 30.32 in 10.0 mi SSE 6.9 mph - N/A   Clear
1:53 AM 27.1 °F 19.7 °F 21.7 °F 80% 30.31 in 10.0 mi SSE 6.9 mph - N/A   Clear
2:13 AM 27.1 °F 19.7 °F 22.1 °F 81% 30.31 in 10.0 mi SSE 6.9 mph - N/A   Clear
2:33 AM 26.6 °F 18.2 °F 21.9 °F 82% 30.31 in 10.0 mi SSE 8.1 mph - N/A   Clear
2:53 AM 27.1 °F 18.9 °F 22.1 °F 81% 30.31 in 10.0 mi SSE 8.1 mph - N/A   Clear
3:13 AM 27.0 °F 18.7 °F 21.9 °F 81% 30.30 in 10.0 mi South 8.1 mph - N/A   Clear
3:33 AM 26.6 °F 18.2 °F 21.4 °F 81% 30.30 in 10.0 mi South 8.1 mph - N/A   Clear
3:53 AM 25.7 °F 17.1 °F 21.6 °F 84% 30.29 in 10.0 mi SSE 8.1 mph - N/A   Clear
4:13 AM 25.7 °F 16.4 °F 21.7 °F 85% 30.29 in 10.0 mi SSE 9.2 mph - N/A   Clear
4:33 AM 25.5 °F 15.5 °F 21.9 °F 86% 30.28 in 10.0 mi SSE 10.4 mph - N/A   Clear
4:53 AM 25.7 °F 16.4 °F 22.1 °F 86% 30.28 in 10.0 mi SSE 9.2 mph - N/A   Clear
5:13 AM 26.4 °F 18.0 °F 21.7 °F 82% 30.28 in 10.0 mi SSE 8.1 mph - N/A   Clear
5:33 AM 26.6 °F 17.5 °F 21.2 °F 80% 30.29 in 10.0 mi SSE 9.2 mph - N/A   Clear
5:53 AM 26.4 °F 17.3 °F 20.8 °F 79% 30.28 in 10.0 mi SSE 9.2 mph - N/A   Clear
6:13 AM 26.2 °F 17.1 °F 20.1 °F 78% 30.28 in 10.0 mi South 9.2 mph - N/A   Clear
6:33 AM 26.6 °F 19.1 °F 19.8 °F 75% 30.29 in 10.0 mi South 6.9 mph - N/A   Clear
6:53 AM 26.4 °F 16.6 °F 19.6 °F 75% 30.28 in 10.0 mi SSE 10.4 mph - N/A   Clear
7:13 AM 26.4 °F 18.0 °F 19.4 °F 75% 30.27 in 10.0 mi SSE 8.1 mph - N/A   Clear
7:33 AM 26.6 °F 18.2 °F 19.0 °F 73% 30.27 in 10.0 mi SSE 8.1 mph - N/A   Clear
7:53 AM 28.2 °F 18.9 °F 19.0 °F 68% 30.27 in 10.0 mi SSE 10.4 mph - N/A   Clear
8:13 AM 28.4 °F 19.1 °F 18.9 °F 67% 30.27 in 10.0 mi SSE 10.4 mph - N/A   Clear
8:33 AM 29.3 °F 19.1 °F 19.0 °F 66% 30.27 in 10.0 mi SSE 12.7 mph - N/A   Clear
8:53 AM 29.3 °F 20.2 °F 18.9 °F 65% 30.27 in 10.0 mi SSE 10.4 mph - N/A   Clear
9:13 AM 29.3 °F 19.6 °F 19.0 °F 66% 30.26 in 10.0 mi SSE 11.5 mph - N/A   Clear
9:33 AM 30.0 °F 21.7 °F 19.4 °F 65% 30.26 in 10.0 mi SSE 9.2 mph - N/A   Clear
9:53 AM 31.5 °F 23.5 °F 19.4 °F 61% 30.25 in 10.0 mi SSE 9.2 mph - N/A   Clear
10:13 AM 32.0 °F 24.8 °F 19.4 °F 60% 30.24 in 10.0 mi SE 8.1 mph - N/A   Clear
10:33 AM 33.1 °F 26.9 °F 19.9 °F 59% 30.24 in 10.0 mi SSE 6.9 mph - N/A   Clear
10:53 AM 34.3 °F 27.0 °F 19.8 °F 55% 30.24 in 10.0 mi SSE 9.2 mph - N/A   Clear
11:13 AM 34.9 °F 32.0 °F 20.1 °F 55% 30.23 in 10.0 mi SE 3.5 mph - N/A   Clear
11:33 AM 35.4 °F 30.5 °F 20.1 °F 54% 30.23 in 10.0 mi SSE 5.8 mph - N/A   Clear
11:53 AM 36.7 °F 32.0 °F 20.1 °F 51% 30.23 in 10.0 mi SE 5.8 mph - N/A   Clear
12:13 PM 37.4 °F 34.9 °F 20.1 °F 50% 30.23 in 10.0 mi SE 3.5 mph - N/A   Clear
12:33 PM 38.3 °F 34.8 °F 19.8 °F 47% 30.22 in 10.0 mi ESE 4.6 mph - N/A   Clear
12:53 PM 33.8 °F 28.6 °F 25.0 °F 70% 30.21 in 10.0 mi East 5.8 mph - N/A   Clear
1:13 PM 34.5 °F 27.9 °F 24.8 °F 68% 30.19 in 10.0 mi East 8.1 mph - N/A   Scattered Clouds
1:33 PM 33.8 °F 27.0 °F 27.5 °F 78% 30.18 in 10.0 mi East 8.1 mph - N/A   Scattered Clouds
1:53 PM 34.3 °F 27.7 °F 28.0 °F 78% 30.17 in 10.0 mi ESE 8.1 mph - N/A   Clear
2:13 PM 34.2 °F 26.2 °F 28.8 °F 81% 30.15 in 10.0 mi East 10.4 mph - N/A   Clear
2:33 PM 34.0 °F 26.6 °F 29.3 °F 83% 30.15 in 10.0 mi East 9.2 mph 16.1 mph N/A   Scattered Clouds
2:53 PM 34.0 °F 27.2 °F 29.7 °F 84% 30.15 in 10.0 mi East 8.1 mph 16.1 mph N/A   Overcast
3:13 PM 34.3 °F 27.7 °F 29.3 °F 82% 30.14 in 10.0 mi East 8.1 mph - N/A   Overcast
3:33 PM 33.6 °F 26.2 °F 29.7 °F 85% 30.10 in 7.0 mi East 9.2 mph 17.3 mph N/A   Overcast
3:53 PM 34.5 °F 27.9 °F 29.3 °F 81% 30.10 in 10.0 mi East 8.1 mph - N/A   Overcast
4:13 PM 34.2 °F 25.7 °F 29.3 °F 82% 30.10 in 10.0 mi ESE 11.5 mph - N/A   Overcast
4:33 PM 34.7 °F 28.8 °F 29.1 °F 80% 30.08 in 10.0 mi East 6.9 mph - N/A   Overcast
4:53 PM 34.9 °F 27.1 °F 28.6 °F 78% 30.06 in 10.0 mi East 10.4 mph 16.1 mph N/A   Overcast
5:13 PM 35.6 °F 28.6 °F 28.2 °F 75% 30.06 in 10.0 mi ESE 9.2 mph - N/A   Overcast
5:33 PM 35.6 °F 29.2 °F 28.2 °F 75% 30.05 in 10.0 mi East 8.1 mph - N/A   Overcast
5:53 PM 36.0 °F 30.3 °F 27.9 °F 72% 30.04 in 10.0 mi ESE 6.9 mph - N/A   Overcast
6:13 PM 36.5 °F 29.2 °F 27.5 °F 70% 30.05 in 10.0 mi ESE 10.4 mph 16.1 mph N/A   Overcast
6:33 PM 36.1 °F 27.7 °F 27.3 °F 70% 30.03 in 10.0 mi ESE 12.7 mph 19.6 mph N/A   Overcast
7:13 PM 34.3 °F 28.4 °F 27.9 °F 77% 30.03 in 10.0 mi ESE 6.9 mph - N/A   Overcast
7:33 PM 34.7 °F 27.5 °F 27.5 °F 75% 30.02 in 10.0 mi ESE 9.2 mph - N/A   Overcast
7:53 PM 34.9 °F 28.3 °F 27.0 °F 73% 30.02 in 10.0 mi ESE 8.1 mph - N/A   Overcast
8:13 PM 34.3 °F 27.7 °F 27.3 °F 76% 30.02 in 10.0 mi ESE 8.1 mph - N/A   Overcast
8:33 PM 33.8 °F 27.0 °F 27.9 °F 79% 30.01 in 10.0 mi ESE 8.1 mph - N/A   Overcast
8:53 PM 33.8 °F 27.7 °F 27.7 °F 78% 30.01 in 10.0 mi ESE 6.9 mph - N/A   Overcast
9:13 PM 34.0 °F 27.2 °F 27.7 °F 78% 30.00 in 10.0 mi SE 8.1 mph - N/A   Overcast
9:33 PM 35.1 °F 28.6 °F 26.6 °F 71% 30.01 in 10.0 mi SE 8.1 mph - N/A   Overcast
9:53 PM 35.2 °F 28.1 °F 27.0 °F 72% 30.01 in 7.0 mi SE 9.2 mph 16.1 mph N/A Snow Light Snow
10:13 PM 34.7 °F 26.9 °F 28.4 °F 78% 30.00 in 3.0 mi SE 10.4 mph 18.4 mph 0.01 in Snow Light Snow
10:33 PM 33.8 °F 26.4 °F 29.7 °F 85% 30.00 in 4.0 mi SE 9.2 mph 16.1 mph 0.07 in Snow Light Snow
10:53 PM 33.4 °F 25.4 °F 30.2 °F 88% 30.00 in 5.0 mi SE 10.4 mph 17.3 mph 0.09 in Snow Light Snow
11:13 PM 33.3 °F 25.1 °F 30.4 °F 89% 29.98 in 4.0 mi SE 10.4 mph 19.6 mph 0.01 in Snow Light Snow
11:33 PM 33.1 °F 24.9 °F 30.9 °F 92% 29.97 in 2.5 mi SE 10.4 mph 24.2 mph 0.01 in Snow Light Snow
11:53 PM 33.1 °F 24.4 °F 31.1 °F 92% 29.96 in 4.0 mi SE 11.5 mph 19.6 mph 0.02 in Snow Light Snow